Kissimmee, FL

9:30 AM EST on December 11, 2016 (GMT -0500)
Kissimmee Municipal

Weather History for KISM - June, 2013

Change the Weather History Date:

Wednesday, June 5, 2013

  Actual Average Record
Temperature  
Mean Temperature 76 °F -  
Max Temperature 82 °F 90 °F 96 °F (1980)
Min Temperature 71 °F 69 °F 60 °F (1963)
Cooling Degree Days 12    
Growing Degree Days 26 (Base 50)    
Moisture  
Dew Point 72 °F    
Average Humidity 87    
Maximum Humidity 100    
Minimum Humidity 69    
Precipitation  
Precipitation 0.00 in - - ()
Sea Level Pressure  
Sea Level Pressure 29.99 in    
Wind  
Wind Speed 7 mph (East)    
Max Wind Speed 18 mph    
Max Gust Speed 23 mph    
Visibility 7 miles    
Events Rain    
Averages and records for this station are not official NWS values.
T = Trace of Precipitation, MM = Missing Value Source: NWS Daily Summary

Daily Weather History Graph

Daily Weather History Graph

Search for Another Location

Airport or City:

Trip Planner

Search our weather history database for the weather conditions in past years. The results will help you decide how hot, cold, wet, or windy it might be!

Date:

Astronomy

Jun. 05, 2013 Rise Set
Actual Time 6:28 AM EDT 8:20 PM EDT
Civil Twilight 6:01 AM EDT 8:47 PM EDT
Nautical Twilight 5:29 AM EDT 9:19 PM EDT
Astronomical Twilight 4:55 AM EDT 9:53 PM EDT
Moon 4:20 AM EDT (6/5) 5:54 PM EDT (6/5)
Length of Visible Light 14h 45m
Length of Day
13h 52m
Waning Crescent, 8% of the Moon is Illuminated
Jun 5
Waning Crescent
Jun 8
New
Jun 16
First Quarter
Jun 23
Full
Jun 30
Last Quarter

Hourly Weather History & Observations

Time (EDT) Temp. Heat Index Dew Point Humidity Pressure Visibility Wind Dir Wind Speed Gust Speed Precip Events Conditions
6:49 AM 75.2 °F - 71.6 °F 89% 29.97 in 10.0 mi East 4.6 mph - N/A   Clear
7:50 AM 75.2 °F - 71.6 °F 89% 30.00 in 10.0 mi NE 4.6 mph - N/A   Mostly Cloudy
8:50 AM 77.0 °F - 71.6 °F 83% 30.02 in 10.0 mi East 5.8 mph - N/A   Overcast
9:50 AM 78.8 °F - 73.4 °F 83% 30.03 in 10.0 mi East 9.2 mph - N/A   Overcast
10:51 AM 80.6 °F 85.4 °F 73.4 °F 79% 30.03 in 10.0 mi SE 6.9 mph - N/A   Overcast
11:50 AM 82.4 °F 87.2 °F 71.6 °F 70% 30.03 in 10.0 mi ESE 9.2 mph - N/A   Overcast
12:30 PM 78.8 °F - 68.0 °F 69% 30.03 in 10.0 mi WSW 18.4 mph 23.0 mph N/A   Overcast
12:50 PM 77.0 °F - 69.8 °F 78% 30.03 in 2.0 mi WSW 13.8 mph - N/A Rain Rain
1:25 PM 73.4 °F - 71.6 °F 94% 30.01 in 5.0 mi South 3.5 mph - N/A Rain Rain
1:49 PM 75.2 °F - 73.4 °F 94% 30.00 in 7.0 mi South 6.9 mph - N/A Rain Light Rain
2:50 PM 77.0 °F - 71.6 °F 83% 29.99 in 10.0 mi ENE 6.9 mph - N/A   Mostly Cloudy
3:55 PM 80.6 °F 84.6 °F 71.6 °F 74% 29.99 in 1.0 mi East 6.9 mph - N/A Rain Rain
4:50 PM 71.6 °F - 71.6 °F 100% 29.99 in 2.5 mi Calm Calm - N/A Rain Rain
5:33 PM 73.4 °F - 71.6 °F 94% 29.98 in 4.0 mi NE 3.5 mph - N/A Rain Light Rain
5:50 PM 73.4 °F - 71.6 °F 94% 29.97 in 4.0 mi East 6.9 mph - N/A Rain Light Rain
6:50 PM 73.4 °F - 73.4 °F 100% 29.95 in 5.0 mi NE 4.6 mph - N/A Rain Light Rain
7:50 PM 75.2 °F - 73.4 °F 94% 29.94 in 10.0 mi ENE 5.8 mph - N/A   Overcast
8:50 PM 75.2 °F - 73.4 °F 94% 29.95 in 10.0 mi East 4.6 mph - N/A   Overcast
9:50 PM 75.2 °F - 73.4 °F 94% 29.95 in 10.0 mi East 5.8 mph - N/A   Mostly Cloudy